| time (UTC) | temp F | wind direction | speed MPH | gust MPH | rain 1hr in | rain 24hr in | rain mn in | humidity % | barometer mb |
| 20260831220459 | 60 | 317 | 3.0 | 6.0 | 0.00 | 0.09 | 0.09 | 79 | 935.1 |
| 20260831215954 | 60 | 7 | 2.0 | 5.0 | 0.00 | 0.09 | 0.09 | 82 | 935.0 |
| 20260831215449 | 61 | 344 | 0.0 | 0.0 | 0.00 | 0.09 | 0.09 | 76 | 935.0 |
| 20260831214946 | 60 | 89 | 3.0 | 6.0 | 0.05 | 0.09 | 0.09 | 74 | 934.9 |
| 20260831214443 | 60 | 125 | 3.0 | 6.0 | 0.31 | 0.09 | 0.09 | 75 | 935.0 |
| 20260831213938 | 63 | 151 | 7.0 | 17.0 | 0.31 | 0.08 | 0.08 | 71 | 934.8 |
| 20260831213435 | 66 | 153 | 9.0 | 14.0 | 0.05 | 0.04 | 0.04 | 70 | 934.5 |
| 20260831212935 | 67 | 146 | 1.0 | 3.0 | 0.00 | 0.03 | 0.03 | 66 | 934.5 |
| 20260831212431 | 68 | 142 | 2.0 | 5.0 | 0.00 | 0.03 | 0.03 | 62 | 934.7 |
| 20260831211931 | 69 | 94 | 3.0 | 6.0 | 0.00 | 0.03 | 0.03 | 54 | 934.8 |
| 20260831211426 | 69 | 121 | 3.0 | 5.0 | 0.00 | 0.03 | 0.03 | 53 | 934.9 |
| 20260831210925 | 69 | 91 | 3.0 | 7.0 | 0.00 | 0.03 | 0.03 | 53 | 935.0 |
| 20260831210421 | 69 | 114 | 6.0 | 8.0 | 0.00 | 0.03 | 0.03 | 54 | 934.8 |
| 20260831205916 | 70 | 62 | 0.0 | 6.0 | 0.00 | 0.03 | 0.03 | 53 | 934.9 |
| 20260831205412 | 68 | 157 | 1.0 | 7.0 | 0.00 | 0.03 | 0.03 | 53 | 935.0 |
| 20260831204912 | 67 | 144 | 5.0 | 9.0 | 0.00 | 0.03 | 0.03 | 58 | 934.9 |
| 20260831204412 | 66 | 268 | 8.0 | 10.0 | 0.00 | 0.03 | 0.03 | 62 | 935.0 |
| 20260831203911 | 64 | 129 | 4.0 | 7.0 | 0.00 | 0.03 | 0.03 | 62 | 935.1 |
| 20260831203406 | 61 | 110 | 4.0 | 7.0 | 0.07 | 0.03 | 0.03 | 67 | 935.2 |
| 20260831202904 | 62 | 80 | 4.0 | 8.0 | 0.12 | 0.03 | 0.03 | 71 | 935.1 |
| 20260831202359 | 64 | 137 | 8.0 | 10.0 | 0.12 | 0.02 | 0.02 | 69 | 935.5 |
| 20260831201859 | 66 | 144 | 5.0 | 8.0 | 0.07 | 0.01 | 0.01 | 70 | 935.3 |
| 20260831201358 | 67 | 31 | 2.0 | 7.0 | 0.00 | 0.00 | 0.00 | 64 | 935.5 |
| 20260831200854 | 68 | 119 | 6.0 | 8.0 | 0.00 | 0.00 | 0.00 | 57 | 935.3 |
| 20260831200349 | 68 | 115 | 3.0 | 7.0 | 0.00 | 0.00 | 0.00 | 59 | 935.3 |
| 20260831195844 | 69 | 138 | 7.0 | 9.0 | 0.00 | 0.00 | 0.00 | 54 | 935.5 |
| 20260831195340 | 71 | 137 | 2.0 | 8.0 | 0.00 | 0.00 | 0.00 | 55 | 935.3 |
| 20260831194835 | 71 | 114 | 6.0 | 9.0 | 0.00 | 0.00 | 0.00 | 45 | 935.3 |
| 20260831194330 | 72 | 143 | 6.0 | 10.0 | 0.00 | 0.00 | 0.00 | 45 | 935.7 |
| 20260831193829 | 73 | 131 | 4.0 | 15.0 | 0.00 | 0.00 | 0.00 | 45 | 935.5 |
| 20260831193325 | 75 | 69 | 7.0 | 16.0 | 0.00 | 0.00 | 0.00 | 41 | 935.6 |
| 20260831192820 | 77 | 87 | 0.0 | 1.0 | 0.00 | 0.00 | 0.00 | 38 | 935.3 |
| 20260831192320 | 78 | 115 | 0.0 | 0.0 | 0.00 | 0.00 | 0.00 | 34 | 935.7 |
| 20260831191816 | 77 | 44 | 0.0 | 0.0 | 0.00 | 0.00 | 0.00 | 36 | 935.7 |
| 20260831191312 | 75 | 84 | 0.0 | 0.0 | 0.00 | 0.00 | 0.00 | 40 | 935.8 |
| 20260831190808 | 77 | 69 | 0.0 | 0.0 | 0.00 | 0.00 | 0.00 | 40 | 935.5 |
| 20260831190308 | 78 | 61 | 0.0 | 1.0 | 0.00 | 0.00 | 0.00 | 35 | 935.8 |
| 20260831185807 | 77 | 288 | 0.0 | 1.0 | 0.00 | 0.00 | 0.00 | 35 | 935.7 |
| 20260831185306 | 77 | 341 | 4.0 | 6.0 | 0.00 | 0.00 | 0.00 | 38 | 935.9 |
| 20260831184802 | 77 | 4 | 0.0 | 5.0 | 0.00 | 0.00 | 0.00 | 38 | 936.2 |
| 20260831184258 | 77 | 19 | 0.0 | 1.0 | 0.00 | 0.00 | 0.00 | 37 | 936.2 |
| 20260831183753 | 76 | 333 | 5.0 | 6.0 | 0.00 | 0.00 | 0.00 | 38 | 936.5 |
| 20260831183252 | 77 | 9 | 0.0 | 0.0 | 0.00 | 0.00 | 0.00 | 38 | 936.5 |
| 20260831182751 | 75 | 4 | 0.0 | 6.0 | 0.00 | 0.00 | 0.00 | 38 | 936.5 |
| 20260831182246 | 75 | 351 | 5.0 | 7.0 | 0.00 | 0.00 | 0.00 | 43 | 936.5 |
| 20260831181741 | 75 | 338 | 0.0 | 6.0 | 0.00 | 0.00 | 0.00 | 42 | 936.4 |
| 20260831181237 | 74 | 359 | 2.0 | 6.0 | 0.00 | 0.00 | 0.00 | 43 | 936.4 |
| 20260831180737 | 75 | 337 | 0.0 | 0.0 | 0.00 | 0.00 | 0.00 | 41 | 936.5 |
| 20260831180232 | 75 | 335 | 2.0 | 3.0 | 0.00 | 0.00 | 0.00 | 43 | 936.6 |
| 20260831175731 | 73 | 348 | 5.0 | 8.0 | 0.00 | 0.00 | 0.00 | 45 | 936.4 |
| 20260831175228 | 73 | 357 | 3.0 | 6.0 | 0.00 | 0.00 | 0.00 | 44 | 936.8 |
| 20260831174722 | 73 | 332 | 0.0 | 5.0 | 0.00 | 0.00 | 0.00 | 47 | 936.6 |
| 20260831174218 | 71 | 6 | 3.0 | 5.0 | 0.00 | 0.00 | 0.00 | 47 | 936.8 |
| 20260831173717 | 71 | 14 | 0.0 | 6.0 | 0.00 | 0.00 | 0.00 | 50 | 936.9 |
| 20260831173212 | 71 | 14 | 4.0 | 7.0 | 0.00 | 0.00 | 0.00 | 50 | 936.9 |
| 20260831172712 | 71 | 10 | 1.0 | 3.0 | 0.00 | 0.00 | 0.00 | 48 | 936.8 |
| 20260831172208 | 70 | 349 | 1.0 | 2.0 | 0.00 | 0.00 | 0.00 | 49 | 936.9 |
| 20260831171702 | 69 | 250 | 1.0 | 3.0 | 0.00 | 0.00 | 0.00 | 52 | 936.9 |
| 20260831171200 | 68 | 297 | 0.0 | 3.0 | 0.00 | 0.00 | 0.00 | 53 | 937.0 |
| 20260831170656 | 68 | 354 | 0.0 | 0.0 | 0.00 | 0.00 | 0.00 | 55 | 937.0 |
| 20260831170152 | 68 | 299 | 3.0 | 3.0 | 0.00 | 0.00 | 0.00 | 56 | 936.9 |
| 20260831165648 | 67 | 4 | 3.0 | 5.0 | 0.00 | 0.00 | 0.00 | 57 | 936.9 |
| 20260831165144 | 66 | 8 | 0.0 | 2.0 | 0.00 | 0.00 | 0.00 | 55 | 936.9 |
| 20260831164640 | 66 | 344 | 1.0 | 3.0 | 0.00 | 0.00 | 0.00 | 58 | 937.0 |
| 20260831164136 | 65 | 353 | 3.0 | 5.0 | 0.00 | 0.00 | 0.00 | 60 | 936.9 |
| 20260831163631 | 64 | 318 | 3.0 | 5.0 | 0.00 | 0.00 | 0.00 | 60 | 936.9 |
| 20260831163126 | 64 | 356 | 3.0 | 3.0 | 0.00 | 0.00 | 0.00 | 59 | 936.7 |
| 20260831162625 | 63 | 334 | 3.0 | 5.0 | 0.00 | 0.00 | 0.00 | 60 | 936.7 |
| 20260831162123 | 63 | 7 | 0.0 | 0.0 | 0.00 | 0.00 | 0.00 | 62 | 936.6 |
| 20260831161619 | 62 | 7 | 3.0 | 5.0 | 0.00 | 0.00 | 0.00 | 61 | 936.7 |
| 20260831161116 | 62 | 347 | 1.0 | 5.0 | 0.00 | 0.00 | 0.00 | 63 | 936.6 |
| 20260831160615 | 61 | 7 | 3.0 | 5.0 | 0.00 | 0.00 | 0.00 | 63 | 936.8 |
| 20260831160111 | 61 | 5 | 0.0 | 0.0 | 0.00 | 0.00 | 0.00 | 62 | 936.8 |
| 20260831155610 | 60 | 29 | 0.0 | 1.0 | 0.00 | 0.00 | 0.00 | 63 | 936.6 |
| 20260831155106 | 60 | 10 | 0.0 | 2.0 | 0.00 | 0.00 | 0.00 | 62 | 936.8 |
| 20260831154602 | 60 | 357 | 2.0 | 3.0 | 0.00 | 0.00 | 0.00 | 62 | 937.0 |
| 20260831154102 | 60 | 353 | 2.0 | 3.0 | 0.00 | 0.00 | 0.00 | 63 | 937.0 |
| 20260831153601 | 59 | 359 | 2.0 | 3.0 | 0.00 | 0.00 | 0.00 | 64 | 937.0 |
| 20260831153058 | 59 | 1 | 1.0 | 2.0 | 0.00 | 0.00 | 0.00 | 63 | 937.0 |
| 20260831152553 | 59 | 4 | 3.0 | 3.0 | 0.00 | 0.00 | 0.00 | 65 | 936.9 |
| 20260831152049 | 59 | 15 | 2.0 | 2.0 | 0.00 | 0.00 | 0.00 | 65 | 937.0 |
| 20260831151548 | 59 | 16 | 2.0 | 2.0 | 0.00 | 0.00 | 0.00 | 65 | 937.2 |
| 20260831151043 | 60 | 47 | 0.0 | 0.0 | 0.00 | 0.00 | 0.00 | 64 | 937.0 |
| 20260831150538 | 59 | 55 | 0.0 | 0.0 | 0.00 | 0.00 | 0.00 | 65 | 937.0 |
| 20260831150034 | 58 | 46 | 0.0 | 0.0 | 0.00 | 0.00 | 0.00 | 66 | 937.3 |
| 20260831145528 | 57 | 45 | 0.0 | 1.0 | 0.00 | 0.00 | 0.00 | 68 | 937.0 |
| 20260831145024 | 57 | 66 | 1.0 | 3.0 | 0.00 | 0.00 | 0.00 | 67 | 937.2 |
| 20260831144520 | 56 | 53 | 0.0 | 1.0 | 0.00 | 0.00 | 0.00 | 68 | 937.0 |
| 20260831144015 | 55 | 65 | 1.0 | 2.0 | 0.00 | 0.00 | 0.00 | 69 | 936.9 |
| 20260831143509 | 54 | 75 | 0.0 | 2.0 | 0.00 | 0.00 | 0.00 | 71 | 937.0 |
| 20260831143005 | 53 | 81 | 1.0 | 2.0 | 0.00 | 0.00 | 0.00 | 72 | 937.0 |
| 20260831142501 | 52 | 46 | 0.0 | 1.0 | 0.00 | 0.00 | 0.00 | 74 | 937.2 |
| 20260831141956 | 52 | 83 | 1.0 | 2.0 | 0.00 | 0.00 | 0.00 | 74 | 936.9 |
| 20260831141455 | 51 | 85 | 1.0 | 5.0 | 0.00 | 0.00 | 0.00 | 75 | 936.9 |
| 20260831140950 | 51 | 78 | 1.0 | 2.0 | 0.00 | 0.00 | 0.00 | 76 | 936.6 |
| 20260831140445 | 50 | 64 | 1.0 | 3.0 | 0.00 | 0.00 | 0.00 | 76 | 936.5 |
| 20260831135944 | 50 | 46 | 0.0 | 0.0 | 0.00 | 0.00 | 0.00 | 77 | 936.1 |
| 20260831135443 | 50 | 83 | 2.0 | 3.0 | 0.00 | 0.00 | 0.00 | 77 | 936.2 |
| 20260831134938 | 49 | 50 | 0.0 | 0.0 | 0.00 | 0.00 | 0.00 | 79 | 936.0 |
| 20260831134434 | 48 | 76 | 1.0 | 2.0 | 0.00 | 0.00 | 0.00 | 80 | 936.1 |
| 20260831133934 | 47 | 79 | 1.0 | 2.0 | 0.00 | 0.00 | 0.00 | 82 | 936.1 |
| 20260831133434 | 46 | 48 | 0.0 | 1.0 | 0.00 | 0.00 | 0.00 | 83 | 935.9 |
| 20260831132929 | 46 | 70 | 1.0 | 3.0 | 0.00 | 0.00 | 0.00 | 84 | 935.8 |
| 20260831132425 | 45 | 79 | 2.0 | 3.0 | 0.00 | 0.00 | 0.00 | 85 | 935.7 |
| 20260831131924 | 45 | 72 | 2.0 | 2.0 | 0.00 | 0.00 | 0.00 | 87 | 935.8 |
| 20260831131419 | 44 | 58 | 1.0 | 2.0 | 0.00 | 0.00 | 0.00 | 87 | 935.7 |
| 20260831130915 | 43 | 62 | 2.0 | 3.0 | 0.00 | 0.00 | 0.00 | 88 | 935.7 |
| 20260831130410 | 43 | 129 | 2.0 | 3.0 | 0.00 | 0.00 | 0.00 | 87 | 935.8 |
| 20260831125909 | 44 | 79 | 1.0 | 2.0 | 0.00 | 0.00 | 0.00 | 87 | 935.7 |
| 20260831125405 | 44 | 86 | 2.0 | 3.0 | 0.00 | 0.00 | 0.00 | 88 | 935.7 |
| 20260831124900 | 44 | 110 | 2.0 | 2.0 | 0.00 | 0.00 | 0.00 | 88 | 935.8 |
| 20260831124356 | 43 | 95 | 2.0 | 2.0 | 0.00 | 0.00 | 0.00 | 88 | 935.7 |
| 20260831123856 | 44 | 47 | 0.0 | 2.0 | 0.00 | 0.00 | 0.00 | 88 | 935.7 |
| 20260831123355 | 44 | 55 | 0.0 | 3.0 | 0.00 | 0.00 | 0.00 | 88 | 935.7 |
| 20260831122855 | 43 | 72 | 2.0 | 2.0 | 0.00 | 0.00 | 0.00 | 88 | 935.7 |
| 20260831122351 | 43 | 91 | 2.0 | 2.0 | 0.00 | 0.00 | 0.00 | 88 | 935.8 |
| 20260831121846 | 44 | 98 | 2.0 | 2.0 | 0.00 | 0.00 | 0.00 | 88 | 935.7 |
| 20260831121342 | 44 | 65 | 1.0 | 2.0 | 0.00 | 0.00 | 0.00 | 87 | 935.8 |
| 20260831120837 | 44 | 71 | 1.0 | 2.0 | 0.00 | 0.00 | 0.00 | 87 | 935.6 |
| 20260831120331 | 44 | 79 | 2.0 | 2.0 | 0.00 | 0.00 | 0.00 | 87 | 935.8 |
| 20260831115827 | 44 | 49 | 0.0 | 2.0 | 0.00 | 0.00 | 0.00 | 87 | 935.5 |
| 20260831115324 | 44 | 85 | 3.0 | 3.0 | 0.00 | 0.00 | 0.00 | 87 | 935.6 |
| 20260831114822 | 44 | 88 | 3.0 | 3.0 | 0.00 | 0.00 | 0.00 | 87 | 935.6 |
| 20260831114321 | 44 | 76 | 3.0 | 3.0 | 0.00 | 0.00 | 0.00 | 87 | 935.5 |
| 20260831113818 | 44 | 60 | 2.0 | 2.0 | 0.00 | 0.00 | 0.00 | 87 | 935.6 |
| 20260831113317 | 44 | 67 | 1.0 | 2.0 | 0.00 | 0.00 | 0.00 | 87 | 935.5 |
| 20260831112812 | 45 | 34 | 0.0 | 2.0 | 0.00 | 0.00 | 0.00 | 87 | 935.6 |
| 20260831112307 | 45 | 87 | 1.0 | 2.0 | 0.00 | 0.00 | 0.00 | 87 | 935.5 |
| 20260831111802 | 45 | 69 | 1.0 | 2.0 | 0.00 | 0.00 | 0.00 | 88 | 935.6 |
| 20260831111259 | 44 | 92 | 2.0 | 3.0 | 0.00 | 0.00 | 0.00 | 88 | 935.5 |
| 20260831110754 | 44 | 75 | 1.0 | 2.0 | 0.00 | 0.00 | 0.00 | 87 | 935.6 |
| 20260831110249 | 45 | 79 | 1.0 | 2.0 | 0.00 | 0.00 | 0.00 | 87 | 935.6 |
| 20260831105747 | 45 | 44 | 0.0 | 0.0 | 0.00 | 0.00 | 0.00 | 86 | 935.6 |
| 20260831105243 | 45 | 62 | 1.0 | 2.0 | 0.00 | 0.00 | 0.00 | 86 | 935.7 |
| 20260831104738 | 46 | 78 | 2.0 | 3.0 | 0.00 | 0.00 | 0.00 | 86 | 935.7 |
| 20260831104235 | 46 | 82 | 2.0 | 2.0 | 0.00 | 0.00 | 0.00 | 86 | 935.7 |
| 20260831103734 | 46 | 80 | 3.0 | 3.0 | 0.00 | 0.00 | 0.00 | 86 | 935.6 |
| 20260831103230 | 46 | 68 | 1.0 | 2.0 | 0.00 | 0.00 | 0.00 | 86 | 935.7 |
| 20260831102729 | 46 | 31 | 0.0 | 1.0 | 0.00 | 0.00 | 0.00 | 86 | 935.3 |
| 20260831102225 | 46 | 130 | 2.0 | 3.0 | 0.00 | 0.00 | 0.00 | 86 | 935.6 |
| 20260831101720 | 46 | 41 | 0.0 | 2.0 | 0.00 | 0.00 | 0.00 | 86 | 935.7 |
| 20260831101216 | 46 | 97 | 1.0 | 3.0 | 0.00 | 0.00 | 0.00 | 86 | 935.6 |
| 20260831100711 | 46 | 77 | 1.0 | 3.0 | 0.00 | 0.00 | 0.00 | 86 | 935.3 |
| 20260831100207 | 46 | 73 | 0.0 | 2.0 | 0.00 | 0.00 | 0.00 | 86 | 935.5 |
| 20260831095705 | 46 | 52 | 0.0 | 1.0 | 0.00 | 0.00 | 0.00 | 86 | 935.6 |
| 20260831095201 | 46 | 44 | 0.0 | 1.0 | 0.00 | 0.00 | 0.00 | 86 | 935.5 |
| 20260831094656 | 46 | 68 | 0.0 | 1.0 | 0.00 | 0.00 | 0.00 | 86 | 935.5 |
| 20260831094152 | 46 | 62 | 1.0 | 2.0 | 0.00 | 0.00 | 0.00 | 85 | 935.1 |
| 20260831093647 | 47 | 113 | 0.0 | 0.0 | 0.00 | 0.00 | 0.00 | 85 | 935.3 |
| 20260831093143 | 47 | 114 | 0.0 | 0.0 | 0.00 | 0.00 | 0.00 | 86 | 935.1 |
| 20260831092639 | 47 | 67 | 0.0 | 0.0 | 0.00 | 0.00 | 0.00 | 86 | 935.6 |
| 20260831092135 | 47 | 49 | 0.0 | 0.0 | 0.00 | 0.00 | 0.00 | 86 | 935.2 |
| 20260831091634 | 47 | 48 | 0.0 | 0.0 | 0.00 | 0.00 | 0.00 | 86 | 935.5 |
| 20260831091130 | 47 | 63 | 0.0 | 0.0 | 0.00 | 0.00 | 0.00 | 85 | 935.5 |
| 20260831090625 | 48 | 56 | 0.0 | 0.0 | 0.00 | 0.00 | 0.00 | 85 | 935.2 |
| 20260831090121 | 48 | 51 | 0.0 | 0.0 | 0.00 | 0.00 | 0.00 | 85 | 935.3 |
| 20260831085616 | 48 | 70 | 0.0 | 0.0 | 0.00 | 0.00 | 0.00 | 85 | 935.3 |
| 20260831085112 | 48 | 59 | 0.0 | 0.0 | 0.00 | 0.00 | 0.00 | 85 | 935.3 |
| 20260831084607 | 48 | 79 | 0.0 | 0.0 | 0.00 | 0.00 | 0.00 | 85 | 935.2 |
| 20260831084103 | 48 | 53 | 0.0 | 0.0 | 0.00 | 0.00 | 0.00 | 85 | 935.1 |
| 20260831083559 | 48 | 81 | 0.0 | 0.0 | 0.00 | 0.00 | 0.00 | 86 | 935.2 |
| 20260831083054 | 47 | 51 | 0.0 | 0.0 | 0.00 | 0.00 | 0.00 | 86 | 935.2 |
| 20260831082553 | 48 | 67 | 0.0 | 0.0 | 0.00 | 0.00 | 0.00 | 86 | 935.2 |
| 20260831082048 | 48 | 63 | 0.0 | 2.0 | 0.00 | 0.00 | 0.00 | 86 | 935.2 |
| 20260831081544 | 48 | 137 | 2.0 | 5.0 | 0.00 | 0.00 | 0.00 | 86 | 935.3 |
| 20260831081040 | 48 | 111 | 0.0 | 0.0 | 0.00 | 0.00 | 0.00 | 86 | 935.5 |
| 20260831080540 | 48 | 33 | 0.0 | 0.0 | 0.00 | 0.00 | 0.00 | 86 | 935.5 |
| 20260831080035 | 48 | 56 | 0.0 | 2.0 | 0.00 | 0.00 | 0.00 | 86 | 935.3 |
| 20260831075530 | 48 | 46 | 1.0 | 2.0 | 0.00 | 0.00 | 0.00 | 86 | 935.6 |
| 20260831075026 | 48 | 44 | 0.0 | 0.0 | 0.00 | 0.00 | 0.00 | 86 | 935.7 |
| 20260831074526 | 48 | 50 | 0.0 | 0.0 | 0.00 | 0.00 | 0.00 | 85 | 935.7 |
| 20260831074025 | 48 | 55 | 0.0 | 1.0 | 0.00 | 0.00 | 0.00 | 85 | 935.5 |
| 20260831073520 | 48 | 46 | 0.0 | 0.0 | 0.00 | 0.00 | 0.00 | 85 | 935.6 |
| 20260831073020 | 48 | 68 | 1.0 | 2.0 | 0.00 | 0.00 | 0.00 | 85 | 935.6 |
| 20260831072515 | 48 | 56 | 0.0 | 0.0 | 0.00 | 0.00 | 0.00 | 85 | 935.6 |
| 20260831072012 | 49 | 84 | 0.0 | 0.0 | 0.00 | 0.00 | 0.00 | 85 | 935.3 |
| 20260831071510 | 49 | 56 | 0.0 | 0.0 | 0.00 | 0.00 | 0.00 | 85 | 935.5 |
| 20260831071006 | 49 | 49 | 0.0 | 0.0 | 0.00 | 0.00 | 0.00 | 84 | 935.2 |
| 20260831070504 | 49 | 103 | 0.0 | 2.0 | 0.00 | 0.00 | 0.00 | 84 | 935.3 |
| 20260831070005 | 49 | 78 | 1.0 | 3.0 | 0.00 | 0.00 | 0.00 | 83 | 935.6 |
| 20260831065502 | 49 | 95 | 0.0 | 0.0 | 0.00 | 0.00 | 0.00 | 83 | 935.2 |
| 20260831064957 | 50 | 72 | 0.0 | 3.0 | 0.00 | 0.00 | 0.00 | 82 | 935.3 |
| 20260831064452 | 50 | 37 | 0.0 | 0.0 | 0.00 | 0.00 | 0.00 | 81 | 935.1 |
| 20260831063948 | 51 | 40 | 1.0 | 5.0 | 0.00 | 0.00 | 0.00 | 81 | 934.9 |
| 20260831063443 | 50 | 85 | 0.0 | 5.0 | 0.00 | 0.00 | 0.00 | 81 | 935.2 |
| 20260831062937 | 50 | 50 | 0.0 | 0.0 | 0.00 | 0.00 | 0.00 | 80 | 935.5 |
| 20260831062433 | 50 | 54 | 0.0 | 0.0 | 0.00 | 0.00 | 0.00 | 79 | 935.6 |
| 20260831061932 | 50 | 51 | 1.0 | 1.0 | 0.00 | 0.00 | 0.00 | 79 | 935.3 |
| 20260831061431 | 50 | 60 | 0.0 | 1.0 | 0.00 | 0.00 | 0.00 | 78 | 935.5 |
| 20260831060927 | 51 | 42 | 1.0 | 2.0 | 0.00 | 0.00 | 0.00 | 77 | 935.2 |
| 20260831060422 | 51 | 54 | 0.0 | 2.0 | 0.00 | 0.00 | 0.00 | 77 | 935.2 |
| 20260831055921 | 50 | 48 | 0.0 | 2.0 | 0.00 | 0.01 | 0.01 | 77 | 935.3 |
| 20260831055416 | 50 | 51 | 0.0 | 1.0 | 0.00 | 0.01 | 0.01 | 77 | 935.3 |
| 20260831054912 | 51 | 44 | 0.0 | 0.0 | 0.00 | 0.01 | 0.01 | 76 | 935.6 |
| 20260831054407 | 51 | 76 | 1.0 | 2.0 | 0.00 | 0.01 | 0.01 | 75 | 935.7 |
| 20260831053906 | 51 | 97 | 1.0 | 2.0 | 0.00 | 0.01 | 0.01 | 75 | 935.7 |
| 20260831053404 | 51 | 69 | 2.0 | 3.0 | 0.00 | 0.01 | 0.01 | 74 | 935.5 |
| 20260831052859 | 51 | 88 | 3.0 | 5.0 | 0.00 | 0.01 | 0.01 | 74 | 935.6 |
| 20260831052358 | 51 | 80 | 6.0 | 7.0 | 0.00 | 0.01 | 0.01 | 74 | 935.1 |
| 20260831051856 | 53 | 47 | 1.0 | 1.0 | 0.00 | 0.01 | 0.01 | 72 | 935.5 |
| 20260831051354 | 53 | 52 | 0.0 | 0.0 | 0.00 | 0.01 | 0.01 | 70 | 935.3 |
| 20260831050849 | 52 | 183 | 3.0 | 6.0 | 0.00 | 0.01 | 0.01 | 71 | 935.2 |
| 20260831050343 | 52 | 63 | 0.0 | 2.0 | 0.00 | 0.01 | 0.01 | 72 | 935.1 |
| 20260831045838 | 53 | 112 | 2.0 | 2.0 | 0.00 | 0.01 | 0.01 | 72 | 935.3 |
| 20260831045332 | 53 | 47 | 0.0 | 1.0 | 0.00 | 0.01 | 0.01 | 70 | 935.3 |
| 20260831044827 | 53 | 74 | 0.0 | 0.0 | 0.00 | 0.01 | 0.01 | 69 | 935.3 |
| 20260831044322 | 54 | 109 | 1.0 | 3.0 | 0.00 | 0.01 | 0.01 | 68 | 935.2 |
| 20260831043818 | 54 | 70 | 1.0 | 3.0 | 0.00 | 0.01 | 0.01 | 68 | 935.5 |
| 20260831043317 | 54 | 95 | 2.0 | 5.0 | 0.00 | 0.01 | 0.01 | 67 | 935.2 |
| 20260831042813 | 54 | 59 | 0.0 | 0.0 | 0.00 | 0.01 | 0.01 | 67 | 934.9 |
| 20260831042312 | 55 | 101 | 0.0 | 0.0 | 0.00 | 0.01 | 0.01 | 67 | 934.4 |
| 20260831041808 | 55 | 67 | 0.0 | 0.0 | 0.00 | 0.01 | 0.01 | 67 | 934.3 |
| 20260831041307 | 55 | 83 | 0.0 | 0.0 | 0.00 | 0.01 | 0.01 | 67 | 934.2 |
| 20260831040802 | 55 | 71 | 0.0 | 0.0 | 0.00 | 0.01 | 0.01 | 68 | 934.3 |
| 20260831040301 | 56 | 53 | 0.0 | 0.0 | 0.00 | 0.01 | 0.01 | 68 | 934.4 |
| 20260831035800 | 56 | 75 | 0.0 | 0.0 | 0.00 | 0.01 | 0.01 | 68 | 934.4 |
| 20260831035258 | 57 | 99 | 0.0 | 0.0 | 0.00 | 0.01 | 0.01 | 68 | 934.4 |
| 20260831034758 | 57 | 52 | 0.0 | 0.0 | 0.00 | 0.01 | 0.01 | 68 | 934.2 |
| 20260831034254 | 57 | 52 | 0.0 | 0.0 | 0.00 | 0.01 | 0.01 | 67 | 933.9 |
| 20260831033749 | 58 | 56 | 0.0 | 0.0 | 0.00 | 0.01 | 0.01 | 66 | 933.7 |
| 20260831033248 | 58 | 58 | 0.0 | 0.0 | 0.00 | 0.01 | 0.01 | 66 | 933.6 |
| 20260831032744 | 58 | 44 | 0.0 | 0.0 | 0.00 | 0.01 | 0.01 | 64 | 933.5 |
| 20260831032239 | 57 | 43 | 0.0 | 0.0 | 0.00 | 0.01 | 0.01 | 65 | 933.7 |
| 20260831031734 | 57 | 42 | 0.0 | 0.0 | 0.00 | 0.01 | 0.01 | 66 | 933.7 |
| 20260831031234 | 59 | 37 | 0.0 | 0.0 | 0.00 | 0.01 | 0.01 | 66 | 934.5 |
| 20260831030733 | 60 | 45 | 0.0 | 0.0 | 0.00 | 0.01 | 0.01 | 63 | 934.7 |
| 20260831030227 | 60 | 46 | 0.0 | 0.0 | 0.00 | 0.01 | 0.01 | 58 | 934.4 |
| 20260831025726 | 60 | 51 | 0.0 | 0.0 | 0.00 | 0.01 | 0.01 | 57 | 934.5 |
| 20260831025220 | 60 | 54 | 0.0 | 0.0 | 0.00 | 0.01 | 0.01 | 59 | 934.5 |
| 20260831024716 | 60 | 44 | 0.0 | 0.0 | 0.00 | 0.01 | 0.01 | 57 | 934.1 |
| 20260831024214 | 61 | 42 | 0.0 | 0.0 | 0.00 | 0.01 | 0.01 | 57 | 934.5 |
| 20260831023714 | 62 | 28 | 0.0 | 0.0 | 0.00 | 0.01 | 0.01 | 56 | 934.5 |
| 20260831023213 | 62 | 16 | 0.0 | 0.0 | 0.00 | 0.01 | 0.01 | 51 | 934.4 |
| 20260831022708 | 63 | 15 | 0.0 | 0.0 | 0.00 | 0.01 | 0.01 | 50 | 934.4 |
| 20260831022202 | 63 | 27 | 0.0 | 0.0 | 0.00 | 0.01 | 0.01 | 50 | 934.4 |
| 20260831021702 | 63 | 15 | 0.0 | 0.0 | 0.00 | 0.01 | 0.01 | 51 | 934.5 |
| 20260831021157 | 64 | 14 | 0.0 | 0.0 | 0.00 | 0.01 | 0.01 | 50 | 934.1 |
| 20260831020653 | 65 | 10 | 0.0 | 0.0 | 0.00 | 0.01 | 0.01 | 49 | 934.2 |
| 20260831020147 | 65 | 15 | 0.0 | 0.0 | 0.00 | 0.01 | 0.01 | 47 | 934.2 |
| 20260831015643 | 66 | 323 | 0.0 | 0.0 | 0.00 | 0.01 | 0.01 | 45 | 934.2 |
| 20260831015142 | 67 | 302 | 0.0 | 5.0 | 0.00 | 0.01 | 0.01 | 44 | 934.3 |
| 20260831014637 | 68 | 1 | 0.0 | 1.0 | 0.00 | 0.01 | 0.01 | 42 | 934.1 |
| 20260831014133 | 68 | 6 | 0.0 | 3.0 | 0.00 | 0.01 | 0.01 | 42 | 934.3 |
| 20260831013629 | 68 | 293 | 0.0 | 2.0 | 0.00 | 0.01 | 0.01 | 41 | 934.4 |
| 20260831013128 | 69 | 316 | 0.0 | 0.0 | 0.00 | 0.01 | 0.01 | 42 | 934.5 |
| 20260831012623 | 69 | 359 | 3.0 | 7.0 | 0.00 | 0.01 | 0.01 | 42 | 934.5 |
| 20260831012119 | 69 | 349 | 0.0 | 7.0 | 0.00 | 0.01 | 0.01 | 41 | 934.5 |
| 20260831011618 | 70 | 349 | 0.0 | 0.0 | 0.00 | 0.01 | 0.01 | 40 | 934.2 |
| 20260831011114 | 71 | 354 | 3.0 | 8.0 | 0.00 | 0.01 | 0.01 | 38 | 934.3 |
| 20260831010610 | 71 | 340 | 0.0 | 1.0 | 0.00 | 0.01 | 0.01 | 34 | 934.1 |
| 20260831010105 | 72 | 354 | 0.0 | 5.0 | 0.00 | 0.01 | 0.01 | 32 | 934.1 |
| 20260831005559 | 72 | 274 | 1.0 | 5.0 | 0.00 | 0.01 | 0.01 | 31 | 934.0 |
| 20260831005054 | 72 | 9 | 0.0 | 2.0 | 0.00 | 0.01 | 0.01 | 31 | 933.7 |
| 20260831004550 | 72 | 340 | 6.0 | 10.0 | 0.00 | 0.01 | 0.01 | 29 | 934.0 |
| 20260831004046 | 72 | 296 | 4.0 | 15.0 | 0.00 | 0.01 | 0.01 | 29 | 934.1 |
| 20260831003542 | 73 | 303 | 9.0 | 13.0 | 0.00 | 0.01 | 0.01 | 29 | 934.3 |
| 20260831003038 | 73 | 279 | 6.0 | 11.0 | 0.00 | 0.01 | 0.01 | 32 | 934.2 |
| 20260831002536 | 74 | 308 | 6.0 | 10.0 | 0.00 | 0.01 | 0.01 | 29 | 934.4 |
| 20260831002031 | 74 | 287 | 9.0 | 14.0 | 0.00 | 0.01 | 0.01 | 30 | 934.2 |
| 20260831001527 | 74 | 357 | 7.0 | 14.0 | 0.00 | 0.01 | 0.01 | 29 | 934.3 |
| 20260831001023 | 74 | 304 | 3.0 | 13.0 | 0.00 | 0.01 | 0.01 | 28 | 934.1 |
| 20260831000519 | 74 | 355 | 6.0 | 14.0 | 0.00 | 0.01 | 0.01 | 29 | 934.4 |
| 20260831000018 | 74 | 348 | 7.0 | 16.0 | 0.00 | 0.01 | 0.01 | 28 | 934.2 |
| 20260830235512 | 74 | 346 | 5.0 | 16.0 | 0.00 | 0.01 | 0.01 | 30 | 934.4 |
| 20260830235007 | 75 | 307 | 6.0 | 15.0 | 0.00 | 0.01 | 0.01 | 29 | 933.9 |
| 20260830234502 | 75 | 258 | 5.0 | 11.0 | 0.00 | 0.01 | 0.01 | 29 | 933.9 |
| 20260830233957 | 74 | 2 | 5.0 | 9.0 | 0.00 | 0.01 | 0.01 | 31 | 934.0 |
| 20260830233453 | 75 | 300 | 3.0 | 9.0 | 0.00 | 0.01 | 0.01 | 30 | 934.2 |
| 20260830232949 | 75 | 312 | 3.0 | 13.0 | 0.00 | 0.01 | 0.01 | 31 | 934.0 |
| 20260830232444 | 75 | 307 | 4.0 | 11.0 | 0.00 | 0.01 | 0.01 | 31 | 933.9 |
| 20260830231940 | 75 | 265 | 6.0 | 11.0 | 0.00 | 0.01 | 0.01 | 31 | 934.0 |
| 20260830231435 | 75 | 335 | 1.0 | 10.0 | 0.00 | 0.01 | 0.01 | 31 | 934.3 |
| 20260830230934 | 75 | 11 | 2.0 | 14.0 | 0.00 | 0.01 | 0.01 | 31 | 934.5 |
| 20260830230430 | 75 | 218 | 0.0 | 1.0 | 0.00 | 0.01 | 0.01 | 32 | 934.2 |
| 20260830225929 | 75 | 306 | 1.0 | 17.0 | 0.00 | 0.01 | 0.01 | 33 | 934.3 |
| 20260830225425 | 75 | 299 | 2.0 | 14.0 | 0.00 | 0.01 | 0.01 | 33 | 934.1 |
| 20260830224920 | 74 | 222 | 6.0 | 13.0 | 0.00 | 0.01 | 0.01 | 34 | 934.1 |
| 20260830224419 | 75 | 244 | 4.0 | 16.0 | 0.00 | 0.01 | 0.01 | 34 | 934.2 |
| 20260830223916 | 75 | 336 | 11.0 | 14.0 | 0.00 | 0.01 | 0.01 | 33 | 934.1 |
| 20260830223412 | 74 | 301 | 6.0 | 11.0 | 0.00 | 0.01 | 0.01 | 35 | 934.1 |
| 20260830222911 | 74 | 337 | 11.0 | 15.0 | 0.00 | 0.01 | 0.01 | 35 | 934.4 |
| 20260830222406 | 75 | 301 | 11.0 | 18.0 | 0.00 | 0.01 | 0.01 | 35 | 934.1 |
| 20260830221902 | 75 | 268 | 13.0 | 16.0 | 0.00 | 0.01 | 0.01 | 35 | 934.0 |
| 20260830221358 | 75 | 334 | 6.0 | 11.0 | 0.00 | 0.01 | 0.01 | 35 | 934.2 |
| 20260830220853 | 75 | 250 | 9.0 | 11.0 | 0.00 | 0.01 | 0.01 | 36 | 934.0 |